Beatrice, NE

1:35 PM CST on December 05, 2016 (GMT -0600)
Beatrice Municipal

Weather History for KBIE - December, 2001

Change the Weather History Date:

Friday, December 28, 2001

  Actual Average Record
Temperature  
Mean Temperature 26 °F -  
Max Temperature 37 °F 36 °F 60 °F (1999)
Min Temperature 15 °F 17 °F 3 °F (1950)
Degree Days  
Heating Degree Days 39    
Moisture  
Dew Point 13 °F    
Average Humidity 67    
Maximum Humidity 86    
Minimum Humidity 41    
Precipitation  
Precipitation 0.00 in - - ()
Sea Level Pressure  
Sea Level Pressure 29.82 in    
Wind  
Wind Speed 7 mph (NW)    
Max Wind Speed 28 mph    
Max Gust Speed 38 mph    
Visibility 10 miles    
Events      
Averages and records for this station are not official NWS values.
T = Trace of Precipitation, MM = Missing Value Source: NWS Daily Summary

Daily Weather History Graph

Daily Weather History Graph

Search for Another Location

Airport or City:

Trip Planner

Search our weather history database for the weather conditions in past years. The results will help you decide how hot, cold, wet, or windy it might be!

Date:

Astronomy

Dec. 28, 2001 Rise Set
Actual Time 7:49 AM CST 5:08 PM CST
Civil Twilight 7:18 AM CST 5:39 PM CST
Nautical Twilight 6:44 AM CST 6:13 PM CST
Astronomical Twilight 6:11 AM CST 6:46 PM CST
Moon 3:43 PM CST (12/28) 5:55 AM CST (12/28)
Length of Visible Light 10h 20m
Length of Day
9h 19m
Waxing Gibbous, 96% of the Moon is Illuminated
Dec 28
Waxing Gibbous
Dec 30
Full
Jan 5
Last Quarter
Jan 13
New
Jan 21
First Quarter

Hourly Weather History & Observations

Time (CST) Temp. Windchill Dew Point Humidity Pressure Visibility Wind Dir Wind Speed Gust Speed Precip Events Conditions
12:12 AM 19.4 °F 14.3 °F 15.8 °F 86% 29.72 in 10.0 mi WSW 3.5 mph - N/A   Clear
12:30 AM 19.4 °F 12.8 °F 12.2 °F 74% 29.72 in 10.0 mi SW 4.6 mph - N/A   Clear
12:50 AM 17.6 °F 10.7 °F 10.4 °F 73% 29.72 in 10.0 mi West 4.6 mph - N/A   Clear
1:12 AM 17.6 °F 12.3 °F 12.2 °F 79% 29.71 in 10.0 mi NNW 3.5 mph - N/A   Clear
1:32 AM 17.6 °F 10.7 °F 10.4 °F 73% 29.71 in 10.0 mi NNE 4.6 mph - N/A   Clear
1:50 AM 17.6 °F - 14.0 °F 86% 29.71 in 10.0 mi Calm Calm - N/A   Clear
2:13 AM 15.8 °F - 10.4 °F 79% 29.72 in 10.0 mi Calm Calm - N/A   Clear
2:50 AM 17.6 °F 7.3 °F 12.2 °F 79% 29.74 in 10.0 mi West 8.1 mph - N/A   Clear
3:12 AM 17.6 °F 8.2 °F 10.4 °F 73% 29.74 in 10.0 mi WSW 6.9 mph - N/A   Clear
3:32 AM 15.8 °F 6.1 °F 10.4 °F 79% 29.74 in 10.0 mi WSW 6.9 mph - N/A   Clear
3:50 AM 17.6 °F 8.2 °F 12.2 °F 79% 29.74 in 10.0 mi WSW 6.9 mph - N/A   Clear
4:13 AM 17.6 °F 7.3 °F 10.4 °F 73% 29.74 in 10.0 mi West 8.1 mph - N/A   Clear
4:33 AM 17.6 °F 7.3 °F 12.2 °F 79% 29.74 in 10.0 mi West 8.1 mph - N/A   Clear
4:52 AM 17.6 °F 8.2 °F 10.4 °F 73% 29.73 in 10.0 mi West 6.9 mph - N/A   Clear
5:10 AM 15.8 °F 4.2 °F 10.4 °F 79% 29.74 in 10.0 mi West 9.2 mph - N/A   Clear
5:31 AM 15.8 °F 7.2 °F 8.6 °F 73% 29.73 in 10.0 mi West 5.8 mph - N/A   Scattered Clouds
5:50 AM 15.8 °F 7.2 °F 8.6 °F 73% 29.73 in 10.0 mi West 5.8 mph - N/A   Scattered Clouds
6:11 AM 15.8 °F 7.2 °F 10.4 °F 79% 29.73 in 10.0 mi West 5.8 mph - N/A   Mostly Cloudy
6:52 AM 17.6 °F 12.3 °F 14.0 °F 86% 29.73 in 10.0 mi WSW 3.5 mph - N/A   Overcast
7:12 AM 19.4 °F - 12.2 °F 74% 29.72 in 10.0 mi Calm Calm - N/A   Overcast
7:34 AM 17.6 °F - 10.4 °F 73% 29.72 in 10.0 mi Calm Calm - N/A   Mostly Cloudy
7:50 AM 15.8 °F 7.2 °F 12.2 °F 86% 29.73 in 10.0 mi West 5.8 mph - N/A   Scattered Clouds
8:12 AM 15.8 °F - 8.6 °F 73% 29.73 in 10.0 mi Calm Calm - N/A   Clear
8:30 AM 19.4 °F - 12.2 °F 74% 29.73 in 10.0 mi Calm Calm - N/A   Clear
8:50 AM 21.2 °F - 14.0 °F 74% 29.75 in 10.0 mi Calm Calm - N/A   Clear
9:12 AM 23.0 °F - 15.8 °F 74% 29.74 in 10.0 mi Calm Calm - N/A   Clear
9:30 AM 24.8 °F - 15.8 °F 69% 29.73 in 10.0 mi Calm Calm - N/A   Clear
9:52 AM 26.6 °F - 15.8 °F 64% 29.73 in 10.0 mi Calm Calm - N/A   Clear
10:12 AM 28.4 °F - 15.8 °F 59% 29.74 in 10.0 mi Calm Calm - N/A   Clear
10:30 AM 28.4 °F - 15.8 °F 59% 29.73 in 10.0 mi Calm Calm - N/A   Clear
10:52 AM 30.2 °F 26.7 °F 17.6 °F 60% 29.74 in 10.0 mi SW 3.5 mph - N/A   Clear
11:12 AM 32.0 °F - 15.8 °F 51% 29.73 in 10.0 mi Calm Calm - N/A   Clear
11:30 AM 33.8 °F - 15.8 °F 48% 29.72 in 10.0 mi Calm Calm - N/A   Clear
11:52 AM 33.8 °F - 12.2 °F 41% 29.72 in 10.0 mi Calm Calm - N/A   Clear
12:10 PM 35.6 °F 32.8 °F 15.8 °F 44% 29.72 in 10.0 mi West 3.5 mph - N/A   Clear
1:10 PM 37.4 °F 33.8 °F 17.6 °F 45% 29.71 in 10.0 mi North 4.6 mph - N/A   Clear
1:51 PM 37.4 °F 32.8 °F 15.8 °F 41% 29.71 in 10.0 mi NNW 5.8 mph - N/A   Scattered Clouds
2:10 PM 37.4 °F 32.8 °F 17.6 °F 45% 29.72 in 10.0 mi NNW 5.8 mph - N/A   Scattered Clouds
3:31 PM 35.6 °F 27.1 °F 15.8 °F 44% 29.76 in 10.0 mi North 12.7 mph 16.1 mph N/A   Scattered Clouds
3:50 PM 35.6 °F 27.5 °F 17.6 °F 48% 29.78 in 10.0 mi North 11.5 mph - N/A   Scattered Clouds
4:31 PM 33.8 °F 27.0 °F 17.6 °F 52% 29.80 in 10.0 mi North 8.1 mph - N/A   Scattered Clouds
5:12 PM 32.0 °F 22.1 °F 19.4 °F 60% 29.84 in 10.0 mi North 13.8 mph - N/A   Overcast
5:30 PM 30.2 °F 18.9 °F 21.2 °F 69% 29.86 in 10.0 mi North 16.1 mph - N/A   Overcast
6:14 PM 28.4 °F 16.6 °F 21.2 °F 74% 29.91 in 10.0 mi North 16.1 mph 25.3 mph N/A   Overcast
6:30 PM 26.6 °F 13.1 °F 19.4 °F 74% 29.93 in 10.0 mi North 19.6 mph 25.3 mph N/A   Overcast
6:51 PM 24.8 °F 9.6 °F 17.6 °F 74% 29.95 in 7.0 mi NNW 23.0 mph 31.1 mph N/A   Overcast
7:33 PM 21.2 °F 3.5 °F 12.2 °F 68% 30.00 in 7.0 mi NNW 27.6 mph 38.0 mph N/A   Overcast
7:50 PM 19.4 °F 2.8 °F 8.6 °F 63% 30.03 in 10.0 mi NNW 21.9 mph 35.7 mph N/A   Mostly Cloudy
8:13 PM 17.6 °F 0.1 °F 8.6 °F 68% 30.03 in 10.0 mi NNW 23.0 mph 28.8 mph N/A   Clear
8:30 PM 17.6 °F 1.3 °F 6.8 °F 63% 30.04 in 10.0 mi NNW 19.6 mph 31.1 mph N/A   Scattered Clouds
9:10 PM 19.4 °F 3.2 °F 6.8 °F 58% 30.06 in 10.0 mi NNW 20.7 mph 28.8 mph N/A   Mostly Cloudy
9:30 PM 19.4 °F 4.1 °F 8.6 °F 63% 30.07 in 10.0 mi NNW 18.4 mph 24.2 mph N/A   Overcast
9:50 PM 17.6 °F 4.3 °F 8.6 °F 68% 30.08 in 10.0 mi NNW 12.7 mph - N/A   Overcast
10:12 PM 17.6 °F 1.7 °F 8.6 °F 68% 30.09 in 10.0 mi NNW 18.4 mph 24.2 mph N/A   Overcast
10:30 PM 17.6 °F 1.7 °F 8.6 °F 68% 30.10 in 10.0 mi NNW 18.4 mph 23.0 mph N/A   Overcast
10:50 PM 17.6 °F 2.2 °F 6.8 °F 63% 30.10 in 10.0 mi NW 17.3 mph - N/A   Overcast
11:12 PM 17.6 °F 2.2 °F 3.2 °F 53% 30.10 in 10.0 mi NW 17.3 mph 28.8 mph N/A   Overcast
11:30 PM 17.6 °F 2.2 °F 3.2 °F 53% 30.10 in 10.0 mi NNW 17.3 mph 26.5 mph N/A   Mostly Cloudy
11:52 PM 17.6 °F 0.9 °F 6.8 °F 63% 30.10 in 10.0 mi NNW 20.7 mph - N/A   Mostly Cloudy